Regional Weather Roundup
Issued by NWS

Home | Current Version | Previous Version | Text Only | Print | Product List | Glossary Off
Versions: 1 2 3 4 5 6 7 8 9 10 11 12 13 14 15 16 17 18 19 20 21 22 23 24 25 26 27 28 29 30 31 32 33 34 35 36 37 38 39 40 41 42 43 44 45 46 47 48 49 50

000
ASUS43 KMPX 141310
RWRMN
WEATHER ROUNDUP FOR MINNESOTA
NATIONAL WEATHER SERVICE TWIN CITIES/CHANHASSEN MN
700 AM CST THU DEC 14 2017


NOTE: "FAIR" INDICATES FEW OR NO CLOUDS BELOW 12,000 FEET WITH NO
SIGNIFICANT WEATHER AND/OR OBSTRUCTIONS TO VISIBILITY. N/A MEANS
CURRENT SKY AND/OR WEATHER CONDITIONS ARE NOT AVAILABLE.

MNZ060>063-068>070-141400-
   Twin Cities Metro

CITY           SKY/WX    TMP DP  RH WIND       PRES   REMARKS
TWIN CITIES    PTCLDY    17  14  88 W3        30.03R
ST PAUL        CLOUDY    18  14  84 W5        30.04R WCI  11
CRYSTAL        CLEAR     10   7  87 CALM      30.02R
BLAINE         PTCLDY    14  10  85 CALM      30.01R
LAKEVILLE      PTCLDY     7   7 100 CALM      30.02S
EDEN PRAIRIE   PTCLDY    15  11  83 CALM      30.01S
SOUTH ST PAUL  MOCLDY    19  15  84 CALM      30.02S
LAKE ELMO      CLOUDY    19  16  86 W6        30.03R WCI  11
$$
MNZ001>005-007-008-013>017-022>024-027-028-141400-
   Northwest Minnesota

CITY           SKY/WX    TMP DP  RH WIND       PRES   REMARKS
BEMIDJI        LGT SNOW  13  10  90 W3        29.95R
HALLOCK        CLOUDY    19  18  93 NW12      30.00R WCI   7
ROSEAU         FLURRIES  16  10  79 W7        29.96S WCI   6
WARROAD        FLURRIES  12   9  85 W5        29.96R WCI   4
THIEF RVR FALL FLURRIES  15  12  88 W8        29.99R WCI   4
CROOKSTON      CLOUDY    18  16  93 W5        30.02R WCI  11
FOSSTON        FLURRIES  12  10  92 SW5       29.98R WCI   4
DETROIT LAKES  CLOUDY    18  16  93 NW6       29.98R WCI   9
MOORHEAD       FLURRIES  18  16  93 CALM      30.02R
PARK RAPIDS    CLOUDY    13  10  88 W5        29.94S WCI   5
MAHNOMEN       CLOUDY    15  13  92 W5        29.98R WCI   7
$$
MNZ006-009>011-018-025>026-141400-
   North Central Minnesota

CITY           SKY/WX    TMP DP  RH WIND       PRES   REMARKS
BAUDETTE       LGT SNOW  11   9  92 CALM      29.93S FOG
FLAG ISLAND    LGT SNOW  10   7  85 CALM      29.95R
INTL FALLS     LGT SNOW  12   7  80 W3        29.94R
WASKISH        LGT SNOW  14  12  92 W8        29.95R WCI   3
BIG FORK       LGT SNOW  10   7  85 CALM      29.94R
LONGVILLE      CLOUDY    12  10  92 CALM      29.96R
GRAND RAPIDS   FLURRIES  13   9  84 NW6       29.96S WCI   4
CRANE LAKE     LGT SNOW  12  10  92 CALM      29.97R
ORR            LGT SNOW  10   7  85 NW3       29.92R
COOK           LGT SNOW  12  10  92 NW7       29.94R WCI   2
WALKER         FLURRIES  13   9  87 W6        29.95S WCI   3
$$
MNZ012-019>021-037-141400-
   Northeast Minnesota

CITY           SKY/WX    TMP DP  RH WIND       PRES   REMARKS
DULUTH         CLOUDY    15  13  91 W6        29.92R WCI   6
ELY            FLURRIES  12  10  92 W6        29.92R WCI   3
HIBBING        CLOUDY    13  10  88 W8        29.94R WCI   2
EVELETH        LGT SNOW  14  10  83 W5        29.94R WCI   6
DULUTH HARBOR  CLOUDY    16  10  79 SW6       30.00R WCI   7
TWO HARBORS    CLOUDY    16  10  79 W5        29.92S WCI   9
SILVER BAY     FLURRIES  -6  -9  84 CALM      29.92S
GRAND MARAIS     N/A     13   7  77 VRB6      29.97R WCI   4
G MARAIS ARPRT FLURRIES   3   0  85 CALM      29.86F
$$
MNZ029>031-032-039>041-046>048-054>057-064-141400-
   West Central Minnesota

CITY           SKY/WX    TMP DP  RH WIND       PRES   REMARKS
FERGUS FALLS   CLOUDY    16  14  93 N6        30.03R WCI   7
WHEATON        CLOUDY    19  18  93 N3        30.04R
MORRIS         CLOUDY    19  18  93 N7        30.00S WCI  10
ALEXANDRIA     CLOUDY    15  14  95 W10       29.98R WCI   2
ELBOW LAKE     CLOUDY    17  16  94 W7        30.00R WCI   8
WADENA         CLOUDY    14  12  92 NW7       29.97R WCI   4
GLENWOOD       CLOUDY    16  14  93 NW7       29.99S WCI   6
APPLETON         N/A     21  18  86 NW5       30.02S WCI  15
BENSON         CLOUDY    19  16  86 N8        30.02S WCI   9
ORTONVILLE     CLOUDY    21  18  86 CALM      30.01S
MADISON        CLOUDY    25  19  80 CALM      30.02S
WILLMAR        CLOUDY    19  18  93 NW9       30.02R WCI   9
$$
MNZ033>034-036-042>043-049>051-058-059-141400-
   Central Minnesota

CITY           SKY/WX    TMP DP  RH WIND       PRES   REMARKS
ST CLOUD       CLOUDY    16  13  88 CALM      30.01R
SAUK CENTRE    CLOUDY    17  15  91 W8        29.99R WCI   6
PAYNESVILLE    CLOUDY    19  17  94 W6        30.01R WCI  11
AITKIN         FLURRIES  12   9  85 CALM      29.96R
PINE RIVER     CLOUDY    12  10  92 CALM      29.99S
BRAINERD       CLOUDY    16  11  80 W5        29.97R WCI   9
STAPLES        CLOUDY    12  10  92 NW3       29.98R
LONG PRAIRIE   CLOUDY    16  14  93 W5        29.98R WCI   9
LITTLE FALLS   CLOUDY    18  10  73 W3        29.99S
LITCHFIELD     CLOUDY    18  16  93 CALM      30.02R
BUFFALO        CLOUDY    15  12  90 CALM      30.03R
MAPLE LAKE     CLOUDY    17  15  93 CALM      30.02R
HUTCHINSON     CLOUDY    17  14  90 SW3       30.02R
$$
MNZ037-044-045-052-053-141400-
   East Central Minnesota

CITY           SKY/WX    TMP DP  RH WIND       PRES   REMARKS
PRINCETON      CLOUDY    16  12  86 CALM      30.00R
MORA           CLOUDY    14  12  92 CALM      30.01R
CAMBRIDGE      CLOUDY    16  10  79 CALM      30.01R
RUSH CITY      FLURRIES  14  11  90 W3        30.01S
MOOSE LAKE     CLOUDY    18  12  79 W5        29.96R WCI  11
HINCKLEY       CLOUDY    18  14  86 SW3       29.99R
CLOQUET        FLURRIES  16  10  79 W10       29.94R WCI   3
MCGREGOR       CLOUDY    16  12  86 NW3       29.97R
$$
MNZ071>073-080-081-089-090-097-098-141400-
   Southwest Minnesota

CITY           SKY/WX    TMP DP  RH WIND       PRES   REMARKS
MONTEVIDEO     CLOUDY    21  18  86 N5        30.02S WCI  15
GRANITE FALLS  CLOUDY    23  19  84 N3        30.04R
CANBY          CLOUDY    24  21  89 CALM      30.01S
MARSHALL       CLOUDY    21  18  88 CALM      30.02S
REDWOOD FALLS  CLOUDY    21  15  78 NW7       30.02R WCI  12
OLIVIA         CLOUDY    21  18  86 W10       30.01S WCI  10
PIPESTONE      CLOUDY    25  23  93 CALM      29.98R
WINDOM           N/A     21  10  63 NW12      30.00S WCI   9
WORTHINGTON    CLOUDY    21  18  88 CALM      30.00S
JACKSON        CLOUDY    21  18  86 MISG      30.00S
TRACY          CLOUDY    21  19  93 CALM      30.00S
SLAYTON        CLOUDY    21  19  93 CALM      30.00R
$$
MNZ065>067-074>077-082>085-091>093-141400-
   South Central Minnesota

CITY           SKY/WX    TMP DP  RH WIND       PRES   REMARKS
MANKATO        CLOUDY    13  10  88 CALM      30.03S
NEW ULM        CLOUDY    18  12  79 CALM      30.03R
ST JAMES       CLOUDY    19  16  86 CALM      30.04R
FAIRMONT       CLOUDY    19  14  81 CALM      30.03R
GLENCOE        CLOUDY    16  14  93 CALM      30.01S
FARIBAULT      CLOUDY     7   5  92 CALM      30.01F
OWATONNA       CLOUDY     7   3  85 CALM      30.02R
WASECA         CLOUDY     9   5  85 CALM      30.04S
ALBERT LEA     CLOUDY    10   9  92 CALM      30.01R
$$
MNZ078>079-086>088-094>096-141400-
   Southeast Minnesota

CITY           SKY/WX    TMP DP  RH WIND       PRES   REMARKS
ROCHESTER      CLOUDY     7   5  91 CALM      30.01R
RED WING       CLOUDY    14  10  85 CALM      30.03R
STANTON        CLEAR      9   6  87 CALM      30.02R
DODGE CENTER   CLOUDY     9   5  85 CALM      30.00R FOG
WINONA           N/A     10   9  92 CALM      30.07S
AUSTIN         PTCLDY    10   9  92 CALM      30.00S
PRESTON        CLOUDY    11   9  89 CALM      30.01S
$$
ABBREVIATIONS USED IN REMARKS
   TC - TEMPERATURES IN CELSIUS
  WCI - WIND CHILL INDEX
   HX - HEAT INDEX
  VSB - VISIBILITY
$$



USA.gov is the U.S. government's official web portal to all federal, state and local government web resources and services.